Weather observations for the past three days for
WATFORD CITY
Imperial (Metric)
Date Time (cdt) Wind (mph) Vis. (mi.) Weather Sky Cond. Temperature (ºF) Relative Humidity Wind Chill (°F) Heat Index (°F) Pressure Precipitation (in)
Air Dwpt 6 hour altimeter (in) sea level (mb) 1 hr 3 hr 6 hr
Max. Min.
25 09:35 Calm 10.00 Fair CLR 68 59 73% 29.91 0.0
25 09:15 Calm 10.00 Fair CLR 66.2 59 78% 29.91 0.0
25 08:55 Vrbl 5 10.00 Fair CLR 64.4 59 83% 29.91 0.0
25 08:35 SW 5 10.00 Fair CLR 60.8 59 94% 29.9 0.0
25 08:15 SW 5 10.00 Fair CLR 59 57.2 94% 29.9 0.0
25 07:55 SW 6 10.00 Fair CLR 57.2 57.2 100% 29.89 0.0
25 07:35 W 5 10.00 Fair CLR 55.4 55.4 100% 29.89 0.0
25 07:15 SW 6 10.00 Fair CLR 55.4 55.4 100% 29.88 0.0
25 06:55 S 3 10.00 Fair CLR 53.6 53.6 100% 29.87 0.0
25 06:35 Calm 10.00 Fair CLR 51.8 51.8 100% 29.87 0.0
25 06:15 Calm 10.00 Fair CLR 51.8 51.8 100% 29.86 0.0
25 05:55 S 3 10.00 Fair CLR 50 50 100% 29.86 0.0
25 05:35 Calm 10.00 Fair CLR 50 50 100% 29.85 0.0
25 05:15 SW 3 10.00 Fair CLR 51.8 51.8 100% 29.84 0.0
25 04:55 Calm 10.00 Fair CLR 51.8 51.8 100% 29.84 0.0
25 04:35 S 3 10.00 Fair CLR 51.8 51.8 100% 29.83 0.0
25 04:15 S 5 10.00 Fair CLR 50 50 100% 49 29.83 0.0
25 03:55 Calm 10.00 Fair CLR 50 50 100% 29.82 0.0
25 03:35 Calm 10.00 Fair CLR 51.8 51.8 100% 29.81 0.0
25 03:15 Calm 10.00 Fair CLR 53.6 53.6 100% 29.81 0.0
25 02:55 Calm 10.00 Fair CLR 53.6 53.6 100% 29.81 0.0
25 02:35 Calm 10.00 Fair CLR 53.6 53.6 100% 29.81 0.0
25 02:15 Calm 10.00 Fair CLR 55.4 55.4 100% 29.81 0.0
25 01:55 Calm 10.00 Fair CLR 57.2 57.2 100% 29.8 0.0
25 01:35 Calm 10.00 Fair CLR 55.4 55.4 100% 29.8 0.0
25 01:15 Calm 10.00 Fair CLR 57.2 57.2 100% 29.8 0.0
25 00:55 Calm 10.00 Fair CLR 57.2 57.2 100% 29.8 0.0
25 00:35 Calm 10.00 Fair CLR 57.2 57.2 100% 29.8 0.0
25 00:15 Calm 10.00 Fair CLR 59 59 100% 29.8 0.0
24 23:55 Calm 10.00 Fair CLR 60.8 59 94% 29.8 0.0
24 23:35 Calm 10.00 Fair CLR 62.6 57.2 83% 29.8 0.0
24 23:15 Calm 10.00 Fair CLR 62.6 55.4 77% 29.79 0.0
24 22:55 S 5 10.00 Fair CLR 62.6 57.2 83% 29.79 0.0
24 22:35 S 3 10.00 Fair CLR 64.4 55.4 73% 29.78 0.0
24 22:15 SW 3 10.00 Fair CLR 66.2 57.2 73% 29.77 0.0
24 21:55 Calm 9.00 Fair CLR 68 59 73% 29.77 0.0
24 21:35 Calm 10.00 Fair CLR 69.8 59 69% 29.77 0.0
24 21:15 NW 5 10.00 Fair CLR 71.6 55.4 57% 29.76 0.0
24 20:55 NW 5 10.00 Fair CLR 71.6 55.4 57% 29.76 0.0
24 20:35 NW 6 10.00 Fair CLR 73.4 53.6 50% 29.76 0.0
24 20:15 NW 8 10.00 Fair CLR 77 53.6 44% 78 29.76 0.0
24 19:55 NW 9 10.00 Fair CLR 78.8 51.8 39% 79 29.76 0.0
24 19:35 NW 12 10.00 Fair CLR 80.6 51.8 37% 80 29.76 0.0
24 19:15 NW 10 G 18 10.00 Fair CLR 80.6 51.8 37% 80 29.76 0.0
24 18:55 NW 12 10.00 Fair CLR 80.6 53.6 39% 80 29.76 0.0
24 18:35 NW 9 G 16 10.00 Fair CLR 80.6 53.6 39% 80 29.76 0.0
24 18:15 NW 12 10.00 Fair CLR 80.6 51.8 37% 80 29.76 0.0
24 17:55 NW 9 G 16 10.00 Fair CLR 82.4 51.8 35% 81 29.77 0.0
24 17:35 W 9 G 18 10.00 Fair CLR 82.4 51.8 35% 81 29.77 0.0
24 17:15 NW 10 G 18 10.00 Fair CLR 82.4 51.8 35% 81 29.77 0.0
24 16:55 NW 12 10.00 Fair CLR 82.4 51.8 35% 81 29.78 0.0
24 16:35 W 13 10.00 Fair CLR 82.4 51.8 35% 81 29.78 0.0
24 16:15 W 12 10.00 Fair CLR 82.4 53.6 37% 81 29.78 0.0
24 15:55 NW 13 10.00 Fair CLR 82.4 55.4 40% 82 29.78 0.0
24 15:35 W 14 10.00 Fair CLR 80.6 53.6 39% 80 29.78 0.0
24 15:15 W 12 G 17 10.00 Fair CLR 82.4 53.6 37% 81 29.78 0.0
24 14:55 NW 13 G 20 10.00 Fair CLR 82.4 51.8 35% 81 29.78 0.0
24 14:35 NW 9 G 16 10.00 Fair CLR 82.4 55.4 40% 82 29.78 0.0
24 14:15 NW 13 10.00 Fair CLR 82.4 53.6 37% 81 29.78 0.0
24 13:55 NW 10 G 18 10.00 Fair CLR 80.6 51.8 37% 80 29.78 0.0
24 13:35 W 12 G 17 10.00 Fair CLR 80.6 53.6 39% 80 29.78 0.0
24 13:15 W 12 G 18 10.00 Fair CLR 80.6 53.6 39% 80 29.78 0.0
24 12:55 W 13 10.00 Fair CLR 80.6 53.6 39% 80 29.78 0.0
24 12:35 NW 12 G 17 10.00 Fair CLR 78.8 55.4 45% 79 29.78 0.0
24 12:15 W 9 10.00 Fair CLR 78.8 55.4 45% 79 29.78 0.0
24 11:55 W 7 10.00 Fair CLR 78.8 57.2 48% 80 29.78 0.0
24 11:35 W 10 10.00 Fair CLR 78.8 55.4 45% 79 29.78 0.0
24 11:15 NW 6 G 12 10.00 Fair CLR 77 55.4 47% 79 29.78 0.0
24 10:55 N 7 G 15 10.00 Fair CLR 77 53.6 44% 78 29.77 0.0
24 10:35 W 8 10.00 Fair CLR 77 55.4 47% 79 29.77 0.0
24 10:15 W 7 10.00 Fair CLR 77 57.2 51% 79 29.77 0.0
24 09:55 W 9 10.00 Fair CLR 75.2 53.6 47% 78 29.76 0.0
24 09:35 W 12 10.00 Fair CLR 77 53.6 44% 78 29.76 0.0
24 09:15 W 8 10.00 Fair CLR 77 55.4 47% 79 29.75 0.0
24 08:55 W 12 10.00 Fair CLR 77 60.8 57% 79 29.75 0.0
24 08:35 SW 9 10.00 Fair CLR 73.4 73.4 100% 29.74 0.0
24 08:15 W 9 10.00 Fair CLR 69.8 69.8 100% 29.72 0.0
24 07:55 Calm 10.00 Fair CLR 69.8 69.8 100% 29.69 0.0
24 07:35 SW 7 10.00 Fair CLR 68 68 100% 29.7 0.0
24 07:15 SW 6 10.00 A Few Clouds FEW060 68 68 100% 29.69 0.0
24 06:55 SW 5 G 12 10.00 A Few Clouds FEW065 FEW070 FEW090 68 68 100% 29.67 0.0
24 06:35 W 7 10.00 Fair CLR 68 68 100% 29.68 0.0
24 06:15 S 9 10.00 Fair CLR 68 68 100% 29.65 0.0
24 05:55 SW 5 10.00 A Few Clouds FEW037 FEW044 FEW120 68 66.2 94% 29.63 0.0
24 05:35 SE 8 10.00 Fair CLR 66.2 64.4 94% 29.62 0.0
24 05:15 Calm 10.00 A Few Clouds FEW060 FEW080 FEW120 69.8 64.4 83% 29.63 0.0
24 04:55 NE 5 G 13 10.00 Fair CLR 69.8 64.4 83% 29.64 0.0
24 04:35 NE 12 G 18 10.00 Thunderstorm in Vicinity FEW043 FEW060 SCT120 69.8 69.8 100% 29.65 0.0
24 04:15 NE 14 10.00 Mostly Cloudy FEW025 SCT044 BKN060 69.8 69.8 100% 29.67 0.0
24 03:55 N 13 G 30 10.00 Light Rain FEW025 SCT046 BKN060 71.6 71.6 100% 29.71 0.0
24 03:35 NW 15 10.00 Mostly Cloudy FEW049 SCT060 BKN075 71.6 71.6 100% 29.7 0.0
24 03:15 Calm 10.00 Light Rain FEW048 FEW060 BKN075 71.6 71.6 100% 29.64 0.0
24 02:55 Calm 10.00 Fair CLR 71.6 71.6 100% 29.64 0.0
24 02:35 S 7 10.00 Fair CLR 71.6 71.6 100% 29.62 0.0
24 02:15 Vrbl 7 10.00 Fair CLR 71.6 71.6 100% 29.64 0.0
24 01:35 SE 10 10.00 Fair CLR 69.8 69.8 100% 29.63 0.0
24 01:15 Calm 10.00 Fair CLR 69.8 69.8 100% 29.64 0.0
24 00:35 SE 8 10.00 Fair CLR 71.6 71.6 100% 29.65 0.0
24 00:15 SE 12 10.00 Fair CLR 73.4 69.8 89% 29.65 0.0
23 23:55 SE 13 G 21 10.00 Fair CLR 73.4 69.8 89% 29.66 0.0
23 23:35 SE 14 G 20 10.00 Fair CLR 73.4 69.8 89% 29.67 0.0
23 23:15 SE 10 10.00 Fair CLR 73.4 69.8 89% 29.68 0.0
23 22:55 SE 10 10.00 Fair CLR 71.6 69.8 94% 29.68 0.0
23 22:35 SE 10 10.00 Fair CLR 73.4 69.8 89% 29.69 0.0
23 22:15 SE 10 10.00 Fair CLR 71.6 69.8 94% 29.69 0.0
23 21:55 SE 9 10.00 Fair CLR 73.4 71.6 94% 29.7 0.0
23 21:35 E 6 10.00 Fair CLR 73.4 69.8 89% 29.71 0.0
23 21:15 SE 7 10.00 Fair CLR 75.2 68 78% 76 29.71 0.0
23 20:55 SE 9 10.00 Fair CLR 77 68 74% 79 29.71 0.0
23 20:35 SE 8 G 14 10.00 Fair CLR 77 68 74% 79 29.72 0.0
23 19:55 SE 14 10.00 Fair CLR 80.6 66.2 62% 83 29.72 0.0
23 19:35 SE 12 9.00 Fair CLR 80.6 66.2 62% 83 29.73 0.0
23 18:55 SE 14 G 20 10.00 Fair CLR 82.4 64.4 55% 84 29.74 0.0
23 18:35 SE 16 10.00 Fair CLR 82.4 64.4 55% 84 29.75 0.0
23 18:15 SE 17 10.00 Fair CLR 82.4 62.6 51% 83 29.76 0.0
23 17:55 SE 13 G 23 10.00 Fair CLR 82.4 62.6 51% 83 29.77 0.0
23 17:35 SE 15 G 23 10.00 Fair CLR 82.4 60.8 48% 83 29.78 0.0
23 17:15 SE 13 G 23 10.00 Fair CLR 82.4 60.8 48% 83 29.79 0.0
23 16:55 SE 17 10.00 Fair CLR 82.4 59 45% 82 29.8 0.0
23 16:35 SE 15 10.00 Fair CLR 82.4 59 45% 82 29.81 0.0
23 16:15 S 13 G 23 10.00 Fair CLR 82.4 59 45% 82 29.81 0.0
23 15:55 SE 9 G 16 10.00 Fair CLR 82.4 59 45% 82 29.82 0.0
23 15:35 SE 13 G 23 10.00 Fair CLR 82.4 60.8 48% 83 29.83 0.0
23 15:15 SE 9 G 16 10.00 Fair CLR 82.4 59 45% 82 29.84 0.0
23 14:55 SE 7 G 16 10.00 Fair CLR 82.4 60.8 48% 83 29.84 0.0
23 14:35 E 10 10.00 Fair CLR 82.4 60.8 48% 83 29.85 0.0
23 14:15 SE 10 10.00 Fair CLR 82.4 60.8 48% 83 29.85 0.0
23 13:55 E 7 10.00 Fair CLR 80.6 59 48% 81 29.86 0.0
23 13:35 E 6 G 13 10.00 Fair CLR 80.6 59 48% 81 29.87 0.0
23 13:15 SE 7 10.00 Fair CLR 80.6 59 48% 81 29.88 0.0
23 12:55 E 7 10.00 Fair CLR 80.6 60.8 51% 81 29.88 0.0
23 12:35 E 7 10.00 Fair CLR 78.8 60.8 54% 80 29.88 0.0
23 12:15 SE 7 10.00 Fair CLR 78.8 62.6 58% 80 29.88 0.0
23 11:55 Vrbl 7 10.00 Fair CLR 78.8 64.4 61% 81 29.89 0.0
23 11:35 Vrbl 3 10.00 Fair CLR 77 64.4 65% 79 29.89 0.0
23 11:15 Calm 10.00 Fair CLR 75.2 64.4 69% 77 29.9 0.0
23 10:55 Calm 10.00 Fair CLR 75.2 64.4 69% 77 29.9 0.0
23 10:35 Calm 10.00 Fair CLR 73.4 64.4 74% 29.9 0.0
23 10:15 N 3 10.00 Fair CLR 71.6 64.4 78% 29.91 0.0
23 09:55 Calm 10.00 Fair CLR 69.8 66.2 88% 29.91 0.0
23 09:35 Calm 10.00 Fair CLR 69.8 66.2 88% 29.91 0.0
23 09:15 Calm 10.00 Fair CLR 68 66.2 94% 29.91 0.0
23 08:55 Calm 10.00 Fair CLR 64.4 64.4 100% 29.91 0.0
23 08:35 Calm 10.00 Fair CLR 62.6 62.6 100% 29.91 0.0
23 08:15 Calm 10.00 Fair CLR 60.8 60.8 100% 29.92 0.0
23 07:55 Calm 10.00 Fair CLR 59 59 100% 29.92 0.0
23 07:35 Calm 10.00 Fair CLR 57.2 57.2 100% 29.91 0.0
23 07:15 Calm 10.00 Fair CLR 55.4 55.4 100% 29.92 0.0
23 06:55 Calm 10.00 Fair CLR 53.6 53.6 100% 29.91 0.0
23 06:35 Calm 10.00 Fair CLR 51.8 51.8 100% 29.91 0.0
23 06:15 Calm 10.00 Fair CLR 51.8 51.8 100% 29.91 0.0
23 05:55 Calm 9.00 Fair CLR 53.6 53.6 100% 29.91 0.0
23 05:35 Calm 10.00 Fair CLR 53.6 53.6 100% 29.91 0.0
23 05:15 Calm 10.00 Fair CLR 53.6 53.6 100% 29.91 0.0
23 04:55 Calm 10.00 Fair CLR 53.6 53.6 100% 29.91 0.0
23 04:35 Calm 10.00 Fair CLR 53.6 53.6 100% 29.92 0.0
23 04:15 Calm 10.00 Fair CLR 55.4 55.4 100% 29.92 0.0
23 03:55 SW 5 10.00 Fair CLR 55.4 55.4 100% 29.92 0.0
23 03:35 S 5 10.00 Fair CLR 55.4 55.4 100% 29.92 0.0
23 03:15 Calm 10.00 Fair CLR 55.4 55.4 100% 29.92 0.0
23 02:55 Calm 10.00 Fair CLR 57.2 57.2 100% 29.93 0.0
23 02:35 Calm 10.00 Fair CLR 57.2 57.2 100% 29.93 0.0
23 02:15 Calm 10.00 Fair CLR 57.2 57.2 100% 29.93 0.0
23 01:55 Calm 10.00 Fair CLR 59 59 100% 29.93 0.0
23 01:35 Calm 10.00 Fair CLR 59 59 100% 29.93 0.0
23 01:15 Calm 10.00 Fair CLR 59 59 100% 29.93 0.0
23 00:55 Calm 10.00 Partly Cloudy SCT060 SCT075 60.8 60.8 100% 29.94 0.0
23 00:35 SE 3 10.00 Partly Cloudy SCT065 SCT075 62.6 62.6 100% 29.94 0.0
23 00:15 Calm 10.00 Fair CLR 64.4 64.4 100% 29.94 0.0
22 23:55 Vrbl 3 10.00 Fair CLR 62.6 62.6 100% 29.93 0.0
22 23:35 Calm 10.00 Fair CLR 62.6 62.6 100% 29.93 0.0
22 23:15 SW 5 10.00 Fair CLR 62.6 62.6 100% 29.93 0.0
22 22:55 SW 7 10.00 Fair CLR 62.6 62.6 100% 29.93 0.0
22 22:35 SW 6 10.00 Fair CLR 64.4 64.4 100% 29.92 0.0
22 22:15 Calm 10.00 Fair CLR 68 62.6 83% 29.92 0.0
22 21:55 Calm 10.00 Fair CLR 68 62.6 83% 29.91 0.0
22 21:35 Calm 10.00 Fair CLR 69.8 62.6 78% 29.91 0.0
22 21:15 SW 5 10.00 Fair CLR 71.6 62.6 73% 29.91 0.0
22 20:55 SW 5 10.00 Fair CLR 73.4 60.8 65% 29.91 0.0
22 20:35 SW 6 10.00 Fair CLR 75.2 60.8 61% 77 29.91 0.0
22 20:15 W 5 10.00 Fair CLR 75.2 59 57% 78 29.91 0.0
22 19:55 W 7 10.00 Fair CLR 77 59 54% 79 29.91 0.0
22 19:35 W 7 10.00 Fair CLR 77 60.8 57% 79 29.91 0.0
22 19:15 W 5 10.00 Fair CLR 77 59 54% 79 29.92 0.0
22 18:55 SW 7 10.00 Fair CLR 75.2 60.8 61% 77 29.92 0.0
22 18:35 SW 10 9.00 Fair CLR 77 60.8 57% 79 29.93 0.0
22 18:15 Vrbl 6 G 12 10.00 Fair CLR 77 59 54% 79 29.93 0.0
22 17:55 W 8 10.00 A Few Clouds FEW120 77 59 54% 79 29.92 0.0
22 17:35 NW 7 10.00 Fair CLR 77 59 54% 79 29.92 0.0
22 17:15 Calm 10.00 Fair CLR 75.2 60.8 61% 77 29.93 0.0
22 16:55 NW 8 7.00 A Few Clouds FEW043 77 60.8 57% 79 29.93 0.0
22 16:35 NW 7 10.00 A Few Clouds FEW043 77 60.8 57% 79 29.93 0.0
22 16:15 N 6 10.00 Fair CLR 75.2 62.6 65% 77 29.94 0.0
22 15:55 N 7 10.00 Fair CLR 77 60.8 57% 79 29.94 0.0
22 15:35 NW 7 10.00 Fair CLR 75.2 60.8 61% 77 29.94 0.0
22 15:15 Vrbl 6 10.00 Fair CLR 75.2 60.8 61% 77 29.95 0.0
22 14:55 N 8 10.00 Fair CLR 75.2 62.6 65% 77 29.95 0.0
22 14:35 NW 7 G 14 10.00 Fair CLR 73.4 62.6 69% 29.95 0.0
22 14:15 N 7 10.00 Fair CLR 73.4 62.6 69% 29.95 0.0
22 13:55 NW 8 G 15 10.00 Fair CLR 73.4 66.2 78% 29.95 0.0
22 13:35 Vrbl 5 10.00 A Few Clouds FEW027 73.4 64.4 74% 29.95 0.0
22 13:15 Calm 10.00 Partly Cloudy SCT026 SCT033 73.4 64.4 74% 29.96 0.0
22 12:55 NW 9 10.00 Mostly Cloudy SCT026 BKN032 71.6 64.4 78% 29.96 0.0
22 12:35 Vrbl 7 10.00 Partly Cloudy SCT024 SCT031 71.6 64.4 78% 29.96 0.0
22 12:15 W 7 10.00 A Few Clouds FEW021 69.8 66.2 88% 29.96 0.0
22 11:55 NW 7 10.00 Partly Cloudy FEW021 SCT033 69.8 66.2 88% 29.96 0.0
22 11:35 NW 7 10.00 Overcast SCT019 SCT027 OVC033 69.8 66.2 88% 29.97 0.0
22 11:15 W 8 10.00 Mostly Cloudy SCT018 BKN024 BKN031 68 66.2 94% 29.97 0.0
22 10:55 W 8 10.00 Mostly Cloudy SCT015 BKN023 BKN030 68 68 100% 29.97 0.0
22 10:35 Vrbl 3 10.00 Mostly Cloudy SCT014 BKN023 68 68 100% 29.97 0.0
22 10:15 NW 5 10.00 Overcast SCT012 OVC021 66.2 66.2 100% 29.97 0.0
22 09:55 SW 5 10.00 Overcast BKN013 OVC019 64.4 64.4 100% 29.97 0.0
Date Time (cdt) Wind (mph) Vis. (mi.) Weather Sky Cond. Air Dwpt Max. Min. Relative Humidity Wind Chill (°F) Heat Index (°F) altimeter (in) sea level (mb) 1 hr 3 hr 6 hr
6 hour
Temperature (ºF) Pressure Precipitation (in)